SJ-16

Satellite information

Favourite Embed

Satellite Type and Status

PAYLOADIN ORBIT

Key statistics

Satellite SJ-16 at a glance.

Uptime

4337

Days in orbit

Revolutions

≈ 14.9

Per day

Orbit

LEO

Low Earth Orbit

Inclination

75.0

Latest

Satellite identification and parameters

Extended collection of information and parameters for SJ-16.

Object identification

Identified? True

Debris? False

Object name: SJ-16

International designator: 2013-057A

Object number (NORAD): 39358

Object ID (CCSDS): 39358

Country: PEOPLES REPUBLIC OF CHINA (PRC)

Current information (Y/N): Y

RCS size: LARGE

Orbital parameters

Period: 96.545 minutes

Inclination: 74.9738 deg

SMA: 6971.274 km

Apoapsis: 605.263 km

Periapsis: 581.016 km

RAAN: 169.6551 deg

Eccentricy: 0.001739

Argument of periapsis: 198.4292 deg

Mean anomaly: 161.6268 deg

Mean motion: 14.91538568 rev/day

Mean motion (dot): 0.00002229 rev/day2

B* drag term: 0.00022465459 1/REarth

Two-line elements (TLE)

Creation date: Sept. 8, 2025, 6:18 p.m.

Reference frame: TEME

Reference center: EARTH

Epoch: Sept. 8, 2025, 1:41 p.m. UTC

TLE line 0: 0 SJ-16

TLE line 1: 1 39358U 13057A 25251.57030032 .00002229 00000-0 22465-3 0 9996

TLE line 2: 2 39358 74.9738 169.6551 0017390 198.4292 161.6268 14.91538568644347

Live tracking on map

Real-time ground track for satellite SJ-16.

In-orbit conjunctions

There are no conjunctions computed for SJ-16, at the moment. Check back to stay up to date, as we update our databases every day.

Go to all conjunctions

Associated space launch

SJ-16 was lifted into orbit during the mission ‘Long March 4B | Shijian 16’, on board a Long March 4B space rocket.

The launch took place on Oct. 25, 2013, 3:50 a.m. from Launch Area 4 (SLS-2 / 603).

For more information about the launch, click the button.

Launch to space Long March 4B | Shijian 16
Long March 4B | Shijian 16

Agency: N/A

Status: Launch Successful

Launch date: Oct. 25, 2013, 3:50 a.m. UTC

Rocket: Long March 4B

Launch pad: Launch Area 4 (SLS-2 / 603)

Location: Jiuquan Satellite Launch Center, People's Republic of China

...

Latest news about this satellite

There are no fresh news available about this satellite. Check back as we update our databases every day.


Newsletter sign-up

Weekly statistics, charts and insights to help you stay on top of the space industry.